COSMOS 1691 DEB, 43314

Orbit data source: Space-Track

COSMOS 1691 DEB, 43314 is space debris in LEO originally from a launch on Wed, 09 Oct 1985 UTC launched from the Plesetsk Missile And Space Complex (PKMTR). Debris objects in space refer to the collection of defunct objects orbiting the Earth. Examples of debris include non-operational satellites, rocket bodies, and fragments generated from explosions, collisions, or faulty payload assembly.

Loading next visibility...
Identifier
43314, 1985-094Y
Orbit
LEO
Country
Flag of CISCIS
Related business
Manufacturer
Unknown
Mission
Spacecraft
Bus & Motor
Unknown
Mass
Unknown
Launch date (UTC)
1985-10-09 (40 years ago)
Launch vehicle
Unknown
Launch site
Plesetsk Missile And Space Complex (PKMTR)
Object type
Payload
Rocket body
Debris
Shape & HBR
Unknown shape, 0.1 m
Radar Cross Section
Small (<0.1 m²)

Expand to show TLE details & history
Last TLE update: 2 days ago

TLE from 2 days ago
0 COSMOS 1691 DEB
1 43314U 85094Y   26035.97423558  .00000516  00000-0  22429-2 0  9993
2 43314  82.5545 121.6810 0050213 183.0516 177.0286 12.78938530568916
Epoch: 2026-02-04T23:22Z
TLE epoch observation values (Epoch: 2026-02-04T23:22:53.954Z)
Latitude
0.00002°
Longitude
-4.17693°
Altitude
1,387.233 km
Speed
7.148 km/s
True Right ascension
08h 06m 43s
True Declination
0° 00' 00"
Sunlit
Object was in full shadow at epoch
Visualization orbit readout
Latitude
Unknown
Longitude
Unknown
Altitude
Unknown
Speed
Unknown
Apparent Right ascension
Unknown
Apparent Declination
Unknown
Sunlit
N/A
Visualization observer readout
Local Sidereal Time
18:53:05
Azimuth
Unknown
Elevation
Unknown
Doppler factor
Unknown
Orbital elements
Apogee altitude
1,381.809 km
Perigee altitude
1,304.268 km
Semi-major axis
7,721.176 km
Eccentricity
0.00502
Inclination
82.5545°
RAAN
121.681°
Arg. of periapsis
183.0516°
True anomaly
177.05824°
Mean anomaly
177.0286°
Eccentric anomaly
177.04344°
Mean motion
3.19903 °/min
Orbital period
112.53 mins
BSTAR
0.0022429
Loading maneuver chart data...
Computing Atmospheric mass density...
Loading historical data...
Loading historical data...
Loading historical data...
Loading historical data...
Loading historical data...
Loading historical data...
Loading historical data...

Documentation

Showing up to 5 results
|